Time,TemperatureF,DewpointF,PressureIn,WindDirection,WindDirectionDegrees,WindSpeedMPH,WindSpeedGustMPH,Humidity,HourlyPrecipIn,Conditions,Clouds,dailyrainin,SolarRadiationWatts/m^2,SoftwareType,DateUTC
2013-07-03 00:01:00,60.9,59.7,30.20,NE,37,4.0,9.0,96,0.00,,,0.00,0,HR-IXPWINDi_r2_v1.2.,2013-07-03 04:01:00,
2013-07-03 00:06:00,61.0,59.8,30.20,North,5,3.0,9.0,96,0.00,,,0.00,0,HR-IXPWINDi_r2_v1.2.,2013-07-03 04:06:00,
2013-07-03 00:11:00,61.0,59.8,30.20,NW,317,0.0,7.0,96,0.00,,,0.00,0,HR-IXPWINDi_r2_v1.2.,2013-07-03 04:11:00,
2013-07-03 00:16:00,61.0,59.8,30.20,North,351,3.0,5.0,96,0.00,,,0.00,0,HR-IXPWINDi_r2_v1.2.,2013-07-03 04:16:00,
2013-07-03 00:21:00,61.0,59.8,30.20,NE,42,5.0,7.0,96,0.00,,,0.00,0,HR-IXPWINDi_r2_v1.2.,2013-07-03 04:21:00,
2013-07-03 00:26:00,60.9,59.7,30.20,North,5,3.0,7.0,96,0.00,,,0.00,0,HR-IXPWINDi_r2_v1.2.,2013-07-03 04:26:00,
2013-07-03 00:31:00,60.9,59.7,30.20,NNW,329,6.0,7.0,96,0.00,,,0.00,0,HR-IXPWINDi_r2_v1.2.,2013-07-03 04:31:00,
2013-07-03 00:36:00,60.7,59.5,30.20,North,11,6.0,8.0,96,0.00,,,0.00,0,HR-IXPWINDi_r2_v1.2.,2013-07-03 04:36:00,
2013-07-03 00:41:00,60.6,59.4,30.20,NNE,19,3.0,8.0,96,0.00,,,0.00,0,HR-IXPWINDi_r2_v1.2.,2013-07-03 04:41:00,
2013-07-03 00:46:00,60.7,59.5,30.20,NNE,32,4.0,7.0,96,0.00,,,0.00,0,HR-IXPWINDi_r2_v1.2.,2013-07-03 04:46:00,
2013-07-03 00:51:00,60.7,59.5,30.19,NE,56,0.0,6.0,96,0.00,,,0.00,0,HR-IXPWINDi_r2_v1.2.,2013-07-03 04:51:00,
2013-07-03 00:53:00,60.7,59.5,30.19,NNE,28,2.0,6.0,96,0.00,,,0.00,0,HR-IXPWINDi_r2_v1.2.,2013-07-03 04:53:00,
2013-07-03 00:58:00,60.6,59.4,30.19,North,5,1.0,5.0,96,0.00,,,0.00,0,HR-IXPWINDi_r2_v1.2.,2013-07-03 04:58:00,
2013-07-03 01:03:00,60.5,59.3,30.19,NNW,345,1.0,5.0,96,0.00,,,0.00,0,HR-IXPWINDi_r2_v1.2.,2013-07-03 05:03:00,
2013-07-03 01:07:00,60.4,59.2,30.19,North,355,3.0,4.0,96,0.00,,,0.00,0,HR-IXPWINDi_r2_v1.2.,2013-07-03 05:07:00,
2013-07-03 01:12:00,60.5,59.3,30.19,NNE,26,4.0,4.0,96,0.00,,,0.00,0,HR-IXPWINDi_r2_v1.2.,2013-07-03 05:12:00,
2013-07-03 01:17:00,60.5,59.3,30.19,NNE,14,4.0,4.0,96,0.00,,,0.00,0,HR-IXPWINDi_r2_v1.2.,2013-07-03 05:17:00,
2013-07-03 01:22:00,60.6,59.4,30.19,NNE,14,1.0,5.0,96,0.00,,,0.00,0,HR-IXPWINDi_r2_v1.2.,2013-07-03 05:22:00,
2013-07-03 01:27:00,60.6,59.4,30.19,NE,35,2.0,6.0,96,0.00,,,0.00,0,HR-IXPWINDi_r2_v1.2.,2013-07-03 05:27:00,
2013-07-03 01:33:00,60.6,59.4,30.19,North,355,3.0,6.0,96,0.00,,,0.00,0,HR-IXPWINDi_r2_v1.2.,2013-07-03 05:33:00,
2013-07-03 01:38:00,60.7,59.5,30.19,NNE,18,0.0,6.0,96,0.00,,,0.00,0,HR-IXPWINDi_r2_v1.2.,2013-07-03 05:38:00,
2013-07-03 01:43:00,60.6,59.4,30.19,North,355,0.0,4.0,96,0.00,,,0.00,0,HR-IXPWINDi_r2_v1.2.,2013-07-03 05:43:00,
2013-07-03 01:48:00,60.6,59.4,30.19,North,360,0.0,3.0,96,0.00,,,0.00,0,HR-IXPWINDi_r2_v1.2.,2013-07-03 05:48:00,
2013-07-03 01:54:00,60.6,59.4,30.19,North,5,2.0,4.0,96,0.00,,,0.00,0,HR-IXPWINDi_r2_v1.2.,2013-07-03 05:54:00,
2013-07-03 01:58:00,60.6,59.4,30.19,North,5,0.0,4.0,96,0.00,,,0.00,0,HR-IXPWINDi_r2_v1.2.,2013-07-03 05:58:00,
2013-07-03 02:02:00,60.5,59.3,30.19,North,5,0.0,4.0,96,0.00,,,0.00,0,HR-IXPWINDi_r2_v1.2.,2013-07-03 06:02:00,
2013-07-03 02:07:00,60.6,59.4,30.18,North,5,0.0,3.0,96,0.00,,,0.00,0,HR-IXPWINDi_r2_v1.2.,2013-07-03 06:07:00,
2013-07-03 02:12:00,60.6,59.4,30.18,North,5,0.0,3.0,96,0.00,,,0.00,0,HR-IXPWINDi_r2_v1.2.,2013-07-03 06:12:00,
2013-07-03 02:13:00,60.6,59.4,30.18,North,5,0.0,3.0,96,0.00,,,0.00,0,HR-IXPWINDi_r2_v1.2.,2013-07-03 06:13:00,
2013-07-03 02:18:00,60.7,59.5,30.18,North,5,0.0,1.0,96,0.00,,,0.00,0,HR-IXPWINDi_r2_v1.2.,2013-07-03 06:18:00,
2013-07-03 02:23:00,60.7,59.5,30.18,North,5,0.0,1.0,96,0.00,,,0.00,0,HR-IXPWINDi_r2_v1.2.,2013-07-03 06:23:00,
2013-07-03 02:26:00,60.7,59.5,30.18,North,5,0.0,1.0,96,0.00,,,0.00,0,HR-IXPWINDi_r2_v1.2.,2013-07-03 06:26:00,
2013-07-03 02:31:00,60.7,59.5,30.18,North,5,0.0,0.0,96,0.00,,,0.00,0,HR-IXPWINDi_r2_v1.2.,2013-07-03 06:31:00,
2013-07-03 02:36:00,60.7,59.5,30.18,North,5,0.0,0.0,96,0.00,,,0.00,0,HR-IXPWINDi_r2_v1.2.,2013-07-03 06:36:00,
2013-07-03 02:41:00,60.7,59.5,30.18,North,5,0.0,0.0,96,0.00,,,0.00,0,HR-IXPWINDi_r2_v1.2.,2013-07-03 06:41:00,
2013-07-03 02:43:00,60.7,59.5,30.18,North,5,0.0,0.0,96,0.00,,,0.00,0,HR-IXPWINDi_r2_v1.2.,2013-07-03 06:43:00,
2013-07-03 02:48:00,60.7,59.5,30.18,North,5,0.0,1.0,96,0.00,,,0.00,0,HR-IXPWINDi_r2_v1.2.,2013-07-03 06:48:00,
2013-07-03 02:53:00,60.8,59.6,30.18,North,5,0.0,1.0,96,0.00,,,0.00,0,HR-IXPWINDi_r2_v1.2.,2013-07-03 06:53:00,
2013-07-03 02:55:00,60.8,59.6,30.18,North,5,0.0,1.0,96,0.00,,,0.00,0,HR-IXPWINDi_r2_v1.2.,2013-07-03 06:55:00,
2013-07-03 03:00:00,60.9,59.7,30.18,North,5,0.0,1.0,96,0.00,,,0.00,0,HR-IXPWINDi_r2_v1.2.,2013-07-03 07:00:00,
2013-07-03 03:05:00,61.0,59.8,30.18,North,5,0.0,1.0,96,0.00,,,0.00,0,HR-IXPWINDi_r2_v1.2.,2013-07-03 07:05:00,
2013-07-03 03:10:00,61.1,59.9,30.19,North,5,1.0,2.0,96,0.00,,,0.00,0,HR-IXPWINDi_r2_v1.2.,2013-07-03 07:10:00,
2013-07-03 03:15:00,61.2,60.0,30.19,West,278,0.0,2.0,96,0.00,,,0.00,0,HR-IXPWINDi_r2_v1.2.,2013-07-03 07:15:00,
2013-07-03 03:20:00,61.2,60.0,30.19,West,278,0.0,2.0,96,0.00,,,0.00,0,HR-IXPWINDi_r2_v1.2.,2013-07-03 07:20:00,
2013-07-03 03:25:00,61.3,60.1,30.18,West,278,0.0,2.0,96,0.00,,,0.00,0,HR-IXPWINDi_r2_v1.2.,2013-07-03 07:25:00,
2013-07-03 03:31:00,61.4,60.2,30.18,West,278,0.0,1.0,96,0.00,,,0.00,0,HR-IXPWINDi_r2_v1.2.,2013-07-03 07:31:00,
2013-07-03 03:36:00,61.4,60.2,30.18,West,278,0.0,0.0,96,0.00,,,0.00,0,HR-IXPWINDi_r2_v1.2.,2013-07-03 07:36:00,
2013-07-03 03:38:00,61.4,59.9,30.18,West,278,0.0,0.0,95,0.00,,,0.00,0,HR-IXPWINDi_r2_v1.2.,2013-07-03 07:38:00,
2013-07-03 03:43:00,61.5,60.0,30.18,West,278,0.0,0.0,95,0.00,,,0.00,0,HR-IXPWINDi_r2_v1.2.,2013-07-03 07:43:00,
2013-07-03 03:48:00,61.5,60.0,30.18,West,278,1.0,1.0,95,0.00,,,0.00,0,HR-IXPWINDi_r2_v1.2.,2013-07-03 07:48:00,
2013-07-03 03:53:00,61.5,60.0,30.18,West,278,0.0,1.0,95,0.00,,,0.00,0,HR-IXPWINDi_r2_v1.2.,2013-07-03 07:53:00,
2013-07-03 03:58:00,61.5,60.0,30.18,West,278,0.0,1.0,95,0.00,,,0.00,0,HR-IXPWINDi_r2_v1.2.,2013-07-03 07:58:00,
2013-07-03 04:03:00,61.6,60.1,30.18,West,278,0.0,0.0,95,0.00,,,0.00,0,HR-IXPWINDi_r2_v1.2.,2013-07-03 08:03:00,
2013-07-03 04:09:00,61.6,60.4,30.18,West,278,0.0,1.0,96,0.00,,,0.00,0,HR-IXPWINDi_r2_v1.2.,2013-07-03 08:09:00,
2013-07-03 04:14:00,61.6,60.1,30.18,SSE,159,0.0,3.0,95,0.00,,,0.00,0,HR-IXPWINDi_r2_v1.2.,2013-07-03 08:14:00,
2013-07-03 04:19:00,61.5,60.0,30.17,SSE,155,2.0,4.0,95,0.00,,,0.00,0,HR-IXPWINDi_r2_v1.2.,2013-07-03 08:19:00,
2013-07-03 04:24:00,61.4,59.9,30.17,SSE,156,2.0,4.0,95,0.00,,,0.00,0,HR-IXPWINDi_r2_v1.2.,2013-07-03 08:24:00,
2013-07-03 04:29:00,61.3,59.8,30.17,SSE,157,0.0,3.0,95,0.00,,,0.00,0,HR-IXPWINDi_r2_v1.2.,2013-07-03 08:29:00,
2013-07-03 04:34:00,61.3,59.8,30.17,SSE,157,1.0,3.0,95,0.00,,,0.00,0,HR-IXPWINDi_r2_v1.2.,2013-07-03 08:34:00,
2013-07-03 04:39:00,61.3,59.8,30.17,SSE,157,2.0,3.0,95,0.00,,,0.00,0,HR-IXPWINDi_r2_v1.2.,2013-07-03 08:39:00,
2013-07-03 04:45:00,61.3,60.1,30.18,SSE,156,1.0,4.0,96,0.00,,,0.00,0,HR-IXPWINDi_r2_v1.2.,2013-07-03 08:45:00,
2013-07-03 04:50:00,61.3,60.1,30.18,SSE,158,2.0,4.0,96,0.00,,,0.00,0,HR-IXPWINDi_r2_v1.2.,2013-07-03 08:50:00,
2013-07-03 04:55:00,61.3,60.1,30.18,SSE,159,1.0,3.0,96,0.00,,,0.00,0,HR-IXPWINDi_r2_v1.2.,2013-07-03 08:55:00,
2013-07-03 05:00:00,61.3,60.1,30.18,SSE,162,2.0,3.0,96,0.00,,,0.00,0,HR-IXPWINDi_r2_v1.2.,2013-07-03 09:00:00,
2013-07-03 05:05:00,61.4,60.2,30.18,South,174,2.0,4.0,96,0.00,,,0.00,0,HR-IXPWINDi_r2_v1.2.,2013-07-03 09:05:00,
2013-07-03 05:10:00,61.4,60.2,30.18,SSW,195,3.0,7.0,96,0.00,,,0.00,0,HR-IXPWINDi_r2_v1.2.,2013-07-03 09:10:00,
2013-07-03 05:15:00,61.4,60.2,30.18,South,173,1.0,7.0,96,0.00,,,0.00,0,HR-IXPWINDi_r2_v1.2.,2013-07-03 09:15:00,
2013-07-03 05:20:00,61.4,60.2,30.18,South,186,3.0,5.0,96,0.00,,,0.00,0,HR-IXPWINDi_r2_v1.2.,2013-07-03 09:20:00,
2013-07-03 05:26:00,61.5,60.3,30.18,SSW,202,3.0,5.0,96,0.00,,,0.00,0,HR-IXPWINDi_r2_v1.2.,2013-07-03 09:26:00,
2013-07-03 05:31:00,61.5,60.3,30.18,SSE,165,1.0,5.0,96,0.00,,,0.00,0,HR-IXPWINDi_r2_v1.2.,2013-07-03 09:31:00,
2013-07-03 05:36:00,61.4,60.2,30.17,SSE,162,1.0,4.0,96,0.00,,,0.00,5,HR-IXPWINDi_r2_v1.2.,2013-07-03 09:36:00,
2013-07-03 05:41:00,61.3,60.1,30.17,SSE,168,2.0,4.0,96,0.00,,,0.00,7,HR-IXPWINDi_r2_v1.2.,2013-07-03 09:41:00,
2013-07-03 05:46:00,61.4,60.2,30.17,SSE,159,2.0,4.0,96,0.00,,,0.00,11,HR-IXPWINDi_r2_v1.2.,2013-07-03 09:46:00,
2013-07-03 05:52:00,61.5,60.3,30.17,South,175,1.0,4.0,96,0.00,,,0.00,11,HR-IXPWINDi_r2_v1.2.,2013-07-03 09:52:00,
2013-07-03 05:57:00,61.6,60.4,30.18,SSE,162,1.0,4.0,96,0.00,,,0.00,12,HR-IXPWINDi_r2_v1.2.,2013-07-03 09:57:00,
2013-07-03 06:02:00,61.6,60.7,30.18,South,189,2.0,5.0,97,0.00,,,0.00,14,HR-IXPWINDi_r2_v1.2.,2013-07-03 10:02:00,
2013-07-03 06:08:00,61.7,60.8,30.18,South,189,4.0,6.0,97,0.00,,,0.00,18,HR-IXPWINDi_r2_v1.2.,2013-07-03 10:08:00,
2013-07-03 06:13:00,61.7,60.8,30.18,South,188,3.0,6.0,97,0.00,,,0.00,21,HR-IXPWINDi_r2_v1.2.,2013-07-03 10:13:00,
2013-07-03 06:18:00,61.7,60.8,30.19,South,188,4.0,6.0,97,0.00,,,0.00,32,HR-IXPWINDi_r2_v1.2.,2013-07-03 10:18:00,
2013-07-03 06:23:00,61.7,60.8,30.19,South,190,3.0,5.0,97,0.00,,,0.00,32,HR-IXPWINDi_r2_v1.2.,2013-07-03 10:23:00,
2013-07-03 06:29:00,61.7,60.8,30.19,South,190,2.0,5.0,97,0.00,,,0.00,30,HR-IXPWINDi_r2_v1.2.,2013-07-03 10:29:00,
2013-07-03 06:31:00,61.8,60.9,30.19,South,190,2.0,5.0,97,0.00,,,0.00,32,HR-IXPWINDi_r2_v1.2.,2013-07-03 10:31:00,
2013-07-03 06:36:00,61.8,60.9,30.19,South,190,0.0,4.0,97,0.00,,,0.00,35,HR-IXPWINDi_r2_v1.2.,2013-07-03 10:36:00,
2013-07-03 06:41:00,61.8,60.9,30.19,South,190,1.0,3.0,97,0.00,,,0.00,37,HR-IXPWINDi_r2_v1.2.,2013-07-03 10:41:00,
2013-07-03 06:46:00,61.8,60.9,30.19,South,190,1.0,3.0,97,0.00,,,0.00,58,HR-IXPWINDi_r2_v1.2.,2013-07-03 10:46:00,
2013-07-03 06:51:00,61.9,61.0,30.19,South,190,2.0,4.0,97,0.00,,,0.00,91,HR-IXPWINDi_r2_v1.2.,2013-07-03 10:51:00,
2013-07-03 06:57:00,62.0,61.1,30.19,South,189,2.0,4.0,97,0.00,,,0.00,120,HR-IXPWINDi_r2_v1.2.,2013-07-03 10:57:00,
2013-07-03 07:02:00,62.0,61.1,30.19,South,189,2.0,4.0,97,0.00,,,0.00,97,HR-IXPWINDi_r2_v1.2.,2013-07-03 11:02:00,
2013-07-03 07:07:00,62.1,61.5,30.19,South,189,0.0,4.0,98,0.00,,,0.00,79,HR-IXPWINDi_r2_v1.2.,2013-07-03 11:07:00,
2013-07-03 07:12:00,62.2,61.6,30.19,South,189,0.0,4.0,98,0.00,,,0.00,107,HR-IXPWINDi_r2_v1.2.,2013-07-03 11:12:00,
2013-07-03 07:18:00,62.3,61.7,30.19,South,189,0.0,1.0,98,0.00,,,0.00,86,HR-IXPWINDi_r2_v1.2.,2013-07-03 11:18:00,
2013-07-03 07:23:00,62.6,62.0,30.19,South,189,0.0,1.0,98,0.00,,,0.00,81,HR-IXPWINDi_r2_v1.2.,2013-07-03 11:23:00,
2013-07-03 07:28:00,63.2,62.6,30.20,South,189,1.0,1.0,98,0.00,,,0.00,302,HR-IXPWINDi_r2_v1.2.,2013-07-03 11:28:00,
2013-07-03 07:33:00,64.2,63.6,30.20,South,186,0.0,2.0,98,0.00,,,0.00,316,HR-IXPWINDi_r2_v1.2.,2013-07-03 11:33:00,
2013-07-03 07:39:00,65.0,64.1,30.20,South,186,0.0,2.0,97,0.00,,,0.00,343,HR-IXPWINDi_r2_v1.2.,2013-07-03 11:39:00,
2013-07-03 07:45:00,66.1,65.2,30.20,South,186,0.0,1.0,97,0.00,,,0.00,369,HR-IXPWINDi_r2_v1.2.,2013-07-03 11:45:00,
2013-07-03 07:50:00,66.8,65.3,30.20,South,186,0.0,0.0,95,0.00,,,0.00,373,HR-IXPWINDi_r2_v1.2.,2013-07-03 11:50:00,
2013-07-03 07:55:00,67.4,65.2,30.20,South,186,0.0,1.0,93,0.00,,,0.00,396,HR-IXPWINDi_r2_v1.2.,2013-07-03 11:55:00,
2013-07-03 07:59:00,67.5,65.3,30.20,South,186,0.0,1.0,93,0.00,,,0.00,401,HR-IXPWINDi_r2_v1.2.,2013-07-03 11:59:00,
2013-07-03 08:04:00,67.9,65.4,30.19,South,186,0.0,1.0,92,0.00,,,0.00,406,HR-IXPWINDi_r2_v1.2.,2013-07-03 12:04:00,
2013-07-03 08:09:00,68.4,65.3,30.19,South,186,0.0,1.0,90,0.00,,,0.00,422,HR-IXPWINDi_r2_v1.2.,2013-07-03 12:09:00,
2013-07-03 08:12:00,68.6,65.5,30.19,South,186,0.0,1.0,90,0.00,,,0.00,425,HR-IXPWINDi_r2_v1.2.,2013-07-03 12:12:00,
2013-07-03 08:16:00,68.8,65.7,30.19,South,186,0.0,0.0,90,0.00,,,0.00,445,HR-IXPWINDi_r2_v1.2.,2013-07-03 12:16:00,
2013-07-03 08:21:00,68.7,65.3,30.19,South,186,0.0,1.0,89,0.00,,,0.00,439,HR-IXPWINDi_r2_v1.2.,2013-07-03 12:21:00,
2013-07-03 08:26:00,69.3,65.5,30.19,South,186,0.0,2.0,88,0.00,,,0.00,533,HR-IXPWINDi_r2_v1.2.,2013-07-03 12:26:00,
2013-07-03 08:31:00,69.9,66.1,30.19,South,186,0.0,2.0,88,0.00,,,0.00,605,HR-IXPWINDi_r2_v1.2.,2013-07-03 12:31:00,
2013-07-03 08:37:00,69.6,65.8,30.19,South,186,0.0,2.0,88,0.00,,,0.00,606,HR-IXPWINDi_r2_v1.2.,2013-07-03 12:37:00,
2013-07-03 08:42:00,69.7,65.6,30.19,South,186,0.0,1.0,87,0.00,,,0.00,309,HR-IXPWINDi_r2_v1.2.,2013-07-03 12:42:00,
2013-07-03 08:47:00,70.1,66.0,30.19,South,186,0.0,1.0,87,0.00,,,0.00,448,HR-IXPWINDi_r2_v1.2.,2013-07-03 12:47:00,
2013-07-03 08:52:00,70.4,66.3,30.19,South,184,0.0,1.0,87,0.00,,,0.00,448,HR-IXPWINDi_r2_v1.2.,2013-07-03 12:52:00,
2013-07-03 08:58:00,70.5,66.0,30.19,South,172,1.0,2.0,86,0.00,,,0.00,162,HR-IXPWINDi_r2_v1.2.,2013-07-03 12:58:00,
2013-07-03 09:03:00,70.2,66.1,30.19,South,173,0.0,2.0,87,0.00,,,0.00,234,HR-IXPWINDi_r2_v1.2.,2013-07-03 13:03:00,
2013-07-03 09:08:00,71.1,67.0,30.19,SSE,161,3.0,4.0,87,0.00,,,0.00,694,HR-IXPWINDi_r2_v1.2.,2013-07-03 13:08:00,
2013-07-03 09:13:00,71.2,66.7,30.19,SE,141,2.0,7.0,86,0.00,,,0.00,714,HR-IXPWINDi_r2_v1.2.,2013-07-03 13:13:00,
2013-07-03 09:18:00,72.3,67.5,30.19,SE,145,1.0,7.0,85,0.00,,,0.00,649,HR-IXPWINDi_r2_v1.2.,2013-07-03 13:18:00,
2013-07-03 09:23:00,72.7,67.5,30.19,South,185,0.0,4.0,84,0.00,,,0.00,701,HR-IXPWINDi_r2_v1.2.,2013-07-03 13:23:00,
2013-07-03 09:25:00,72.6,67.4,30.19,SSW,198,2.0,5.0,84,0.00,,,0.00,726,HR-IXPWINDi_r2_v1.2.,2013-07-03 13:25:00,
2013-07-03 09:30:00,72.6,67.4,30.19,SSE,165,0.0,5.0,84,0.00,,,0.00,793,HR-IXPWINDi_r2_v1.2.,2013-07-03 13:30:00,
2013-07-03 09:35:00,72.5,67.3,30.19,SE,146,3.0,6.0,84,0.00,,,0.00,485,HR-IXPWINDi_r2_v1.2.,2013-07-03 13:35:00,
2013-07-03 09:40:00,72.8,68.0,30.19,SSE,155,3.0,6.0,85,0.00,,,0.00,322,HR-IXPWINDi_r2_v1.2.,2013-07-03 13:40:00,
2013-07-03 09:45:00,73.1,68.3,30.19,South,178,3.0,7.0,85,0.00,,,0.00,483,HR-IXPWINDi_r2_v1.2.,2013-07-03 13:45:00,
2013-07-03 09:51:00,72.3,68.2,30.19,SSW,207,12.0,13.0,87,0.00,,,0.00,738,HR-IXPWINDi_r2_v1.2.,2013-07-03 13:51:00,
2013-07-03 09:56:00,75.0,69.8,30.19,SSW,211,14.0,17.0,84,0.00,,,0.00,714,HR-IXPWINDi_r2_v1.2.,2013-07-03 13:56:00,
2013-07-03 10:01:00,76.2,70.2,30.19,SSW,212,15.0,17.0,82,0.00,,,0.00,726,HR-IXPWINDi_r2_v1.2.,2013-07-03 14:01:00,
2013-07-03 10:06:00,76.4,69.7,30.19,SSW,213,11.0,17.0,80,0.00,,,0.00,731,HR-IXPWINDi_r2_v1.2.,2013-07-03 14:06:00,
2013-07-03 10:09:00,76.2,69.9,30.19,SSW,211,11.0,17.0,81,0.00,,,0.00,731,HR-IXPWINDi_r2_v1.2.,2013-07-03 14:09:00,
2013-07-03 10:14:00,76.5,70.5,30.19,SSW,210,10.0,16.0,82,0.00,,,0.00,666,HR-IXPWINDi_r2_v1.2.,2013-07-03 14:14:00,
2013-07-03 10:17:00,76.8,70.5,30.19,SSW,209,11.0,14.0,81,0.00,,,0.00,729,HR-IXPWINDi_r2_v1.2.,2013-07-03 14:17:00,
2013-07-03 10:22:00,76.7,70.0,30.19,SSW,202,10.0,13.0,80,0.00,,,0.00,884,HR-IXPWINDi_r2_v1.2.,2013-07-03 14:22:00,
2013-07-03 10:27:00,75.7,69.0,30.19,SSW,209,9.0,12.0,80,0.00,,,0.00,441,HR-IXPWINDi_r2_v1.2.,2013-07-03 14:27:00,
2013-07-03 10:32:00,76.2,70.6,30.19,SW,219,14.0,14.0,83,0.00,,,0.00,891,HR-IXPWINDi_r2_v1.2.,2013-07-03 14:32:00,
2013-07-03 10:37:00,77.5,70.4,30.19,SSW,207,10.0,14.0,79,0.00,,,0.00,469,HR-IXPWINDi_r2_v1.2.,2013-07-03 14:37:00,
2013-07-03 10:42:00,76.9,69.8,30.19,SSW,203,8.0,14.0,79,0.00,,,0.00,450,HR-IXPWINDi_r2_v1.2.,2013-07-03 14:42:00,
2013-07-03 10:48:00,76.8,69.7,30.19,SSW,205,6.0,13.0,79,0.00,,,0.00,424,HR-IXPWINDi_r2_v1.2.,2013-07-03 14:48:00,
2013-07-03 10:51:00,76.7,70.0,30.19,SSW,213,8.0,10.0,80,0.00,,,0.00,424,HR-IXPWINDi_r2_v1.2.,2013-07-03 14:51:00,
2013-07-03 10:56:00,78.1,70.6,30.19,SW,214,15.0,18.0,78,0.00,,,0.00,629,HR-IXPWINDi_r2_v1.2.,2013-07-03 14:56:00,
2013-07-03 11:01:00,78.7,70.4,30.18,SSW,211,15.0,18.0,76,0.00,,,0.00,608,HR-IXPWINDi_r2_v1.2.,2013-07-03 15:01:00,
2013-07-03 11:03:00,78.6,70.3,30.18,SW,218,16.0,18.0,76,0.00,,,0.00,380,HR-IXPWINDi_r2_v1.2.,2013-07-03 15:03:00,
2013-07-03 11:08:00,78.1,69.9,30.18,SSW,211,16.0,18.0,76,0.00,,,0.00,306,HR-IXPWINDi_r2_v1.2.,2013-07-03 15:08:00,
2013-07-03 11:13:00,78.1,69.9,30.19,WSW,239,12.0,21.0,76,0.00,,,0.00,332,HR-IXPWINDi_r2_v1.2.,2013-07-03 15:13:00,
2013-07-03 11:18:00,79.3,70.6,30.19,WSW,237,14.0,21.0,75,0.00,,,0.00,366,HR-IXPWINDi_r2_v1.2.,2013-07-03 15:18:00,
2013-07-03 11:23:00,80.1,70.6,30.19,WSW,252,10.0,20.0,73,0.00,,,0.00,376,HR-IXPWINDi_r2_v1.2.,2013-07-03 15:23:00,
2013-07-03 11:28:00,80.4,70.9,30.19,WSW,245,13.0,16.0,73,0.00,,,0.00,466,HR-IXPWINDi_r2_v1.2.,2013-07-03 15:28:00,
2013-07-03 11:33:00,81.1,71.2,30.18,WNW,287,10.0,18.0,72,0.00,,,0.00,494,HR-IXPWINDi_r2_v1.2.,2013-07-03 15:33:00,
2013-07-03 11:39:00,81.5,70.7,30.18,WSW,237,14.0,18.0,70,0.00,,,0.00,529,HR-IXPWINDi_r2_v1.2.,2013-07-03 15:39:00,
2013-07-03 11:44:00,81.2,70.8,30.19,SW,224,10.0,16.0,71,0.00,,,0.00,438,HR-IXPWINDi_r2_v1.2.,2013-07-03 15:44:00,
2013-07-03 11:49:00,79.5,69.6,30.19,SSW,198,11.0,14.0,72,0.00,,,0.00,369,HR-IXPWINDi_r2_v1.2.,2013-07-03 15:49:00,
2013-07-03 11:52:00,78.8,69.8,30.19,SW,214,13.0,17.0,74,0.00,,,0.00,373,HR-IXPWINDi_r2_v1.2.,2013-07-03 15:52:00,
2013-07-03 11:57:00,79.0,70.3,30.19,SW,224,12.0,18.0,75,0.00,,,0.00,408,HR-IXPWINDi_r2_v1.2.,2013-07-03 15:57:00,
2013-07-03 12:02:00,79.4,70.3,30.18,SSW,212,14.0,18.0,74,0.00,,,0.00,517,HR-IXPWINDi_r2_v1.2.,2013-07-03 16:02:00,
2013-07-03 12:07:00,79.5,70.0,30.18,SSW,212,10.0,16.0,73,0.00,,,0.00,461,HR-IXPWINDi_r2_v1.2.,2013-07-03 16:07:00,
2013-07-03 12:12:00,77.9,69.3,30.18,SSW,207,10.0,14.0,75,0.00,,,0.00,621,HR-IXPWINDi_r2_v1.2.,2013-07-03 16:12:00,
2013-07-03 12:18:00,77.4,69.6,30.18,SSW,207,13.0,14.0,77,0.00,,,0.00,698,HR-IXPWINDi_r2_v1.2.,2013-07-03 16:18:00,
2013-07-03 12:23:00,78.3,70.1,30.18,SSW,212,16.0,16.0,76,0.00,,,0.00,425,HR-IXPWINDi_r2_v1.2.,2013-07-03 16:23:00,
2013-07-03 12:28:00,78.4,69.8,30.18,SSW,207,14.0,18.0,75,0.00,,,0.00,531,HR-IXPWINDi_r2_v1.2.,2013-07-03 16:28:00,
2013-07-03 12:34:00,79.2,70.5,30.18,SW,214,16.0,18.0,75,0.00,,,0.00,928,HR-IXPWINDi_r2_v1.2.,2013-07-03 16:34:00,
2013-07-03 12:39:00,80.5,71.0,30.18,WSW,256,14.0,22.0,73,0.00,,,0.00,1013,HR-IXPWINDi_r2_v1.2.,2013-07-03 16:39:00,
2013-07-03 12:44:00,82.1,71.3,30.18,SW,216,16.0,22.0,70,0.00,,,0.00,940,HR-IXPWINDi_r2_v1.2.,2013-07-03 16:44:00,
2013-07-03 12:49:00,81.9,71.5,30.18,SW,236,14.0,20.0,71,0.00,,,0.00,921,HR-IXPWINDi_r2_v1.2.,2013-07-03 16:49:00,
2013-07-03 12:54:00,82.1,70.4,30.18,SW,226,11.0,18.0,68,0.00,,,0.00,898,HR-IXPWINDi_r2_v1.2.,2013-07-03 16:54:00,
2013-07-03 12:59:00,81.4,70.6,30.17,SW,224,10.0,17.0,70,0.00,,,0.00,895,HR-IXPWINDi_r2_v1.2.,2013-07-03 16:59:00,
2013-07-03 13:05:00,82.5,71.3,30.17,SW,227,12.0,19.0,69,0.00,,,0.00,900,HR-IXPWINDi_r2_v1.2.,2013-07-03 17:05:00,
2013-07-03 13:10:00,83.9,71.3,30.17,WSW,248,14.0,21.0,66,0.00,,,0.00,902,HR-IXPWINDi_r2_v1.2.,2013-07-03 17:10:00,
2013-07-03 13:15:00,82.9,70.8,30.16,SW,217,18.0,21.0,67,0.00,,,0.00,907,HR-IXPWINDi_r2_v1.2.,2013-07-03 17:15:00,
2013-07-03 13:20:00,83.3,71.1,30.17,SW,224,13.0,20.0,67,0.00,,,0.00,911,HR-IXPWINDi_r2_v1.2.,2013-07-03 17:20:00,
2013-07-03 13:25:00,84.6,71.9,30.16,WSW,248,9.0,20.0,66,0.00,,,0.00,932,HR-IXPWINDi_r2_v1.2.,2013-07-03 17:25:00,
2013-07-03 13:30:00,84.8,71.2,30.17,SW,222,11.0,16.0,64,0.00,,,0.00,962,HR-IXPWINDi_r2_v1.2.,2013-07-03 17:30:00,
2013-07-03 13:36:00,85.3,71.7,30.16,SSW,209,11.0,17.0,64,0.00,,,0.00,963,HR-IXPWINDi_r2_v1.2.,2013-07-03 17:36:00,
2013-07-03 13:41:00,85.2,72.1,30.16,WSW,248,9.0,17.0,65,0.00,,,0.00,974,HR-IXPWINDi_r2_v1.2.,2013-07-03 17:41:00,
2013-07-03 13:46:00,84.7,70.7,30.16,WSW,257,12.0,14.0,63,0.00,,,0.00,288,HR-IXPWINDi_r2_v1.2.,2013-07-03 17:46:00,
2013-07-03 13:51:00,84.2,70.7,30.16,SW,224,9.0,15.0,64,0.00,,,0.00,339,HR-IXPWINDi_r2_v1.2.,2013-07-03 17:51:00,
2013-07-03 13:56:00,84.3,71.7,30.16,WSW,244,12.0,16.0,66,0.00,,,0.00,239,HR-IXPWINDi_r2_v1.2.,2013-07-03 17:56:00,
2013-07-03 14:01:00,84.5,70.9,30.16,SSW,194,11.0,16.0,64,0.00,,,0.00,257,HR-IXPWINDi_r2_v1.2.,2013-07-03 18:01:00,
2013-07-03 14:07:00,84.1,71.5,30.16,SSW,209,11.0,16.0,66,0.00,,,0.00,257,HR-IXPWINDi_r2_v1.2.,2013-07-03 18:07:00,
2013-07-03 14:12:00,85.7,72.5,30.16,WSW,238,7.0,16.0,65,0.00,,,0.00,967,HR-IXPWINDi_r2_v1.2.,2013-07-03 18:12:00,
2013-07-03 14:17:00,86.5,71.9,30.16,SW,219,12.0,14.0,62,0.00,,,0.00,345,HR-IXPWINDi_r2_v1.2.,2013-07-03 18:17:00,
2013-07-03 14:22:00,86.5,71.4,30.16,WNW,288,6.0,17.0,61,0.00,,,0.00,965,HR-IXPWINDi_r2_v1.2.,2013-07-03 18:22:00,
2013-07-03 14:27:00,86.6,71.5,30.15,SW,222,12.0,17.0,61,0.00,,,0.00,297,HR-IXPWINDi_r2_v1.2.,2013-07-03 18:27:00,
2013-07-03 14:32:00,86.7,72.1,30.15,SW,217,6.0,15.0,62,0.00,,,0.00,257,HR-IXPWINDi_r2_v1.2.,2013-07-03 18:32:00,
2013-07-03 14:38:00,86.7,72.6,30.16,WSW,252,9.0,13.0,63,0.00,,,0.00,271,HR-IXPWINDi_r2_v1.2.,2013-07-03 18:38:00,
2013-07-03 14:43:00,86.6,72.0,30.15,West,281,7.0,11.0,62,0.00,,,0.00,339,HR-IXPWINDi_r2_v1.2.,2013-07-03 18:43:00,
2013-07-03 14:48:00,86.9,71.8,30.15,SW,219,12.0,15.0,61,0.00,,,0.00,258,HR-IXPWINDi_r2_v1.2.,2013-07-03 18:48:00,
2013-07-03 14:53:00,83.8,70.3,30.15,SSW,201,5.0,15.0,64,0.00,,,0.00,225,HR-IXPWINDi_r2_v1.2.,2013-07-03 18:53:00,
2013-07-03 14:58:00,81.7,70.5,30.15,SSW,208,5.0,12.0,69,0.00,,,0.00,847,HR-IXPWINDi_r2_v1.2.,2013-07-03 18:58:00,
2013-07-03 15:03:00,83.4,72.1,30.15,SW,216,7.0,8.0,69,0.00,,,0.00,211,HR-IXPWINDi_r2_v1.2.,2013-07-03 19:03:00,
2013-07-03 15:09:00,85.2,71.6,30.15,SSW,210,6.0,10.0,64,0.00,,,0.00,229,HR-IXPWINDi_r2_v1.2.,2013-07-03 19:09:00,
2013-07-03 15:14:00,85.0,71.4,30.15,WSW,243,11.0,17.0,64,0.00,,,0.00,914,HR-IXPWINDi_r2_v1.2.,2013-07-03 19:14:00,
2013-07-03 15:19:00,85.0,70.5,30.15,SSW,210,10.0,17.0,62,0.00,,,0.00,179,HR-IXPWINDi_r2_v1.2.,2013-07-03 19:19:00,
2013-07-03 15:25:00,82.9,69.9,30.15,SSW,192,8.0,15.0,65,0.00,,,0.00,199,HR-IXPWINDi_r2_v1.2.,2013-07-03 19:25:00,
2013-07-03 15:30:00,83.4,70.4,30.14,SW,231,13.0,18.0,65,0.00,,,0.00,241,HR-IXPWINDi_r2_v1.2.,2013-07-03 19:30:00,
2013-07-03 15:35:00,85.3,70.8,30.14,SW,215,13.0,18.0,62,0.00,,,0.00,128,HR-IXPWINDi_r2_v1.2.,2013-07-03 19:35:00,
2013-07-03 15:40:00,83.2,70.2,30.14,SSW,213,8.0,17.0,65,0.00,,,0.00,195,HR-IXPWINDi_r2_v1.2.,2013-07-03 19:40:00,
2013-07-03 15:46:00,82.5,70.4,30.14,SSW,205,8.0,16.0,67,0.00,,,0.00,209,HR-IXPWINDi_r2_v1.2.,2013-07-03 19:46:00,
2013-07-03 15:51:00,81.3,68.8,30.14,SSW,209,10.0,14.0,66,0.00,,,0.00,879,HR-IXPWINDi_r2_v1.2.,2013-07-03 19:51:00,
2013-07-03 15:56:00,82.5,70.8,30.13,SW,215,13.0,15.0,68,0.00,,,0.00,181,HR-IXPWINDi_r2_v1.2.,2013-07-03 19:56:00,
2013-07-03 16:01:00,82.3,69.8,30.13,SSW,201,11.0,16.0,66,0.00,,,0.00,777,HR-IXPWINDi_r2_v1.2.,2013-07-03 20:01:00,
2013-07-03 16:06:00,81.3,69.7,30.13,SSW,201,12.0,16.0,68,0.00,,,0.00,81,HR-IXPWINDi_r2_v1.2.,2013-07-03 20:06:00,
2013-07-03 16:11:00,81.1,69.9,30.13,SSW,208,13.0,17.0,69,0.00,,,0.00,93,HR-IXPWINDi_r2_v1.2.,2013-07-03 20:11:00,
2013-07-03 16:17:00,79.9,70.0,30.13,SW,224,14.0,17.0,72,0.00,,,0.00,383,HR-IXPWINDi_r2_v1.2.,2013-07-03 20:17:00,
2013-07-03 16:22:00,80.7,70.4,30.13,SW,224,15.0,18.0,71,0.00,,,0.00,731,HR-IXPWINDi_r2_v1.2.,2013-07-03 20:22:00,
2013-07-03 16:27:00,80.8,69.6,30.13,SSW,204,16.0,18.0,69,0.00,,,0.00,710,HR-IXPWINDi_r2_v1.2.,2013-07-03 20:27:00,
2013-07-03 16:32:00,80.5,69.8,30.13,SSW,207,14.0,16.0,70,0.00,,,0.00,285,HR-IXPWINDi_r2_v1.2.,2013-07-03 20:32:00,
2013-07-03 16:37:00,80.5,69.8,30.13,SSW,201,15.0,16.0,70,0.00,,,0.00,612,HR-IXPWINDi_r2_v1.2.,2013-07-03 20:37:00,
2013-07-03 16:42:00,81.0,70.2,30.13,SSW,194,12.0,18.0,70,0.00,,,0.00,596,HR-IXPWINDi_r2_v1.2.,2013-07-03 20:42:00,
2013-07-03 16:47:00,80.8,70.0,30.12,SSW,204,15.0,18.0,70,0.00,,,0.00,339,HR-IXPWINDi_r2_v1.2.,2013-07-03 20:47:00,
2013-07-03 16:52:00,79.9,69.6,30.13,SSW,207,15.0,16.0,71,0.00,,,0.00,431,HR-IXPWINDi_r2_v1.2.,2013-07-03 20:52:00,
2013-07-03 16:57:00,80.4,70.5,30.12,SSW,209,13.0,18.0,72,0.00,,,0.00,350,HR-IXPWINDi_r2_v1.2.,2013-07-03 20:57:00,
2013-07-03 17:03:00,79.5,69.2,30.12,SSW,208,12.0,18.0,71,0.00,,,0.00,142,HR-IXPWINDi_r2_v1.2.,2013-07-03 21:03:00,
2013-07-03 17:08:00,79.0,69.6,30.12,SSW,205,12.0,18.0,73,0.00,,,0.00,144,HR-IXPWINDi_r2_v1.2.,2013-07-03 21:08:00,
2013-07-03 17:13:00,78.8,69.8,30.12,SSW,213,12.0,18.0,74,0.00,,,0.00,192,HR-IXPWINDi_r2_v1.2.,2013-07-03 21:13:00,
2013-07-03 17:18:00,78.4,69.8,30.12,SSW,210,11.0,15.0,75,0.00,,,0.00,265,HR-IXPWINDi_r2_v1.2.,2013-07-03 21:18:00,
2013-07-03 17:23:00,79.1,70.4,30.12,SSW,213,13.0,14.0,75,0.00,,,0.00,497,HR-IXPWINDi_r2_v1.2.,2013-07-03 21:23:00,
2013-07-03 17:29:00,79.6,69.7,30.12,SSW,209,10.0,15.0,72,0.00,,,0.00,404,HR-IXPWINDi_r2_v1.2.,2013-07-03 21:29:00,
2013-07-03 17:34:00,80.1,71.0,30.12,SW,227,15.0,19.0,74,0.00,,,0.00,431,HR-IXPWINDi_r2_v1.2.,2013-07-03 21:34:00,
2013-07-03 17:39:00,81.9,71.1,30.12,SSW,195,11.0,19.0,70,0.00,,,0.00,260,HR-IXPWINDi_r2_v1.2.,2013-07-03 21:39:00,
2013-07-03 17:44:00,83.7,71.5,30.12,SSW,209,13.0,17.0,67,0.00,,,0.00,418,HR-IXPWINDi_r2_v1.2.,2013-07-03 21:44:00,
2013-07-03 17:49:00,84.6,71.5,30.12,SW,221,9.0,17.0,65,0.00,,,0.00,404,HR-IXPWINDi_r2_v1.2.,2013-07-03 21:49:00,
2013-07-03 17:55:00,85.8,71.7,30.12,SSW,209,11.0,14.0,63,0.00,,,0.00,151,HR-IXPWINDi_r2_v1.2.,2013-07-03 21:55:00,
2013-07-03 18:00:00,81.1,69.5,30.12,SSW,204,8.0,14.0,68,0.00,,,0.00,121,HR-IXPWINDi_r2_v1.2.,2013-07-03 22:00:00,
2013-07-03 18:05:00,79.1,69.2,30.12,SSW,199,9.0,14.0,72,0.00,,,0.00,301,HR-IXPWINDi_r2_v1.2.,2013-07-03 22:05:00,
2013-07-03 18:10:00,79.0,69.6,30.12,SSW,204,8.0,10.0,73,0.00,,,0.00,167,HR-IXPWINDi_r2_v1.2.,2013-07-03 22:10:00,
2013-07-03 18:15:00,78.8,70.2,30.12,SSW,200,14.0,16.0,75,0.00,,,0.00,77,HR-IXPWINDi_r2_v1.2.,2013-07-03 22:15:00,
2013-07-03 18:20:00,79.7,70.2,30.12,SSW,204,12.0,16.0,73,0.00,,,0.00,142,HR-IXPWINDi_r2_v1.2.,2013-07-03 22:20:00,
2013-07-03 18:26:00,78.8,69.4,30.12,SSW,200,14.0,15.0,73,0.00,,,0.00,69,HR-IXPWINDi_r2_v1.2.,2013-07-03 22:26:00,
2013-07-03 18:31:00,78.2,69.6,30.12,SSW,207,14.0,16.0,75,0.00,,,0.00,54,HR-IXPWINDi_r2_v1.2.,2013-07-03 22:31:00,
2013-07-03 18:36:00,78.0,69.8,30.12,SSW,198,14.0,16.0,76,0.00,,,0.00,58,HR-IXPWINDi_r2_v1.2.,2013-07-03 22:36:00,
2013-07-03 18:41:00,78.2,70.0,30.12,SSW,198,14.0,16.0,76,0.00,,,0.00,149,HR-IXPWINDi_r2_v1.2.,2013-07-03 22:41:00,
2013-07-03 18:46:00,78.5,69.9,30.12,SSW,202,14.0,17.0,75,0.00,,,0.00,216,HR-IXPWINDi_r2_v1.2.,2013-07-03 22:46:00,
2013-07-03 18:51:00,78.4,69.8,30.12,SSW,198,10.0,17.0,75,0.00,,,0.00,165,HR-IXPWINDi_r2_v1.2.,2013-07-03 22:51:00,
2013-07-03 18:57:00,78.1,69.9,30.12,SSW,202,14.0,16.0,76,0.00,,,0.00,144,HR-IXPWINDi_r2_v1.2.,2013-07-03 22:57:00,
2013-07-03 19:02:00,78.0,69.8,30.12,SSW,198,10.0,16.0,76,0.00,,,0.00,135,HR-IXPWINDi_r2_v1.2.,2013-07-03 23:02:00,
2013-07-03 19:07:00,77.5,69.3,30.12,SSW,199,14.0,16.0,76,0.00,,,0.00,120,HR-IXPWINDi_r2_v1.2.,2013-07-03 23:07:00,
2013-07-03 19:12:00,77.3,69.1,30.12,SSW,196,11.0,15.0,76,0.00,,,0.00,100,HR-IXPWINDi_r2_v1.2.,2013-07-03 23:12:00,
2013-07-03 19:18:00,76.7,69.3,30.12,SSW,201,13.0,15.0,78,0.00,,,0.00,88,HR-IXPWINDi_r2_v1.2.,2013-07-03 23:18:00,
2013-07-03 19:23:00,76.4,69.3,30.12,SSW,202,15.0,16.0,79,0.00,,,0.00,76,HR-IXPWINDi_r2_v1.2.,2013-07-03 23:23:00,
2013-07-03 19:28:00,77.1,70.0,30.12,SSW,202,14.0,18.0,79,0.00,,,0.00,62,HR-IXPWINDi_r2_v1.2.,2013-07-03 23:28:00,
2013-07-03 19:33:00,77.0,69.6,30.12,SSW,205,15.0,18.0,78,0.00,,,0.00,51,HR-IXPWINDi_r2_v1.2.,2013-07-03 23:33:00,
2013-07-03 19:39:00,77.1,70.0,30.12,SSW,205,16.0,17.0,79,0.00,,,0.00,40,HR-IXPWINDi_r2_v1.2.,2013-07-03 23:39:00,
2013-07-03 19:44:00,77.1,69.7,30.12,SSW,198,13.0,18.0,78,0.00,,,0.00,32,HR-IXPWINDi_r2_v1.2.,2013-07-03 23:44:00,
2013-07-03 19:49:00,76.9,69.8,30.12,SSW,197,12.0,18.0,79,0.00,,,0.00,26,HR-IXPWINDi_r2_v1.2.,2013-07-03 23:49:00,
2013-07-03 19:54:00,76.7,69.6,30.12,SSW,202,16.0,17.0,79,0.00,,,0.00,19,HR-IXPWINDi_r2_v1.2.,2013-07-03 23:54:00,
2013-07-03 19:59:00,77.1,70.0,30.12,SSW,200,13.0,19.0,79,0.00,,,0.00,14,HR-IXPWINDi_r2_v1.2.,2013-07-03 23:59:00,
2013-07-03 20:05:00,76.5,69.1,30.13,SSW,201,14.0,19.0,78,0.00,,,0.00,12,HR-IXPWINDi_r2_v1.2.,2013-07-04 00:05:00,
2013-07-03 20:10:00,75.9,68.9,30.13,SSW,192,10.0,15.0,79,0.00,,,0.00,11,HR-IXPWINDi_r2_v1.2.,2013-07-04 00:10:00,
2013-07-03 20:15:00,75.6,69.7,30.14,SSW,198,12.0,15.0,82,0.00,,,0.00,7,HR-IXPWINDi_r2_v1.2.,2013-07-04 00:15:00,
2013-07-03 20:20:00,75.8,69.9,30.14,South,191,14.0,17.0,82,0.00,,,0.00,0,HR-IXPWINDi_r2_v1.2.,2013-07-04 00:20:00,
2013-07-03 20:25:00,75.9,70.0,30.14,SSW,196,14.0,17.0,82,0.00,,,0.00,0,HR-IXPWINDi_r2_v1.2.,2013-07-04 00:25:00,
2013-07-03 20:30:00,75.5,69.6,30.14,SSW,202,13.0,16.0,82,0.00,,,0.00,0,HR-IXPWINDi_r2_v1.2.,2013-07-04 00:30:00,
2013-07-03 20:35:00,75.2,69.6,30.14,SSW,206,16.0,17.0,83,0.00,,,0.00,0,HR-IXPWINDi_r2_v1.2.,2013-07-04 00:35:00,
2013-07-03 20:41:00,75.4,69.5,30.15,SSW,200,12.0,19.0,82,0.00,,,0.00,0,HR-IXPWINDi_r2_v1.2.,2013-07-04 00:41:00,
2013-07-03 20:46:00,75.4,70.2,30.15,SSW,199,16.0,19.0,84,0.00,,,0.00,0,HR-IXPWINDi_r2_v1.2.,2013-07-04 00:46:00,
2013-07-03 20:51:00,75.6,69.7,30.15,SSW,207,15.0,18.0,82,0.00,,,0.00,0,HR-IXPWINDi_r2_v1.2.,2013-07-04 00:51:00,
2013-07-03 20:56:00,75.7,70.1,30.16,SSW,199,11.0,17.0,83,0.00,,,0.00,0,HR-IXPWINDi_r2_v1.2.,2013-07-04 00:56:00,
2013-07-03 21:02:00,75.1,69.9,30.15,SSW,196,11.0,16.0,84,0.00,,,0.00,0,HR-IXPWINDi_r2_v1.2.,2013-07-04 01:02:00,
2013-07-03 21:07:00,74.9,70.0,30.16,SSW,195,11.0,15.0,85,0.00,,,0.00,0,HR-IXPWINDi_r2_v1.2.,2013-07-04 01:07:00,
2013-07-03 21:12:00,74.9,70.0,30.16,SSW,200,10.0,15.0,85,0.00,,,0.00,0,HR-IXPWINDi_r2_v1.2.,2013-07-04 01:12:00,
2013-07-03 21:17:00,74.7,69.8,30.16,SSW,200,10.0,14.0,85,0.00,,,0.00,0,HR-IXPWINDi_r2_v1.2.,2013-07-04 01:17:00,
2013-07-03 21:22:00,74.4,69.5,30.17,South,189,10.0,13.0,85,0.00,,,0.00,0,HR-IXPWINDi_r2_v1.2.,2013-07-04 01:22:00,
2013-07-03 21:28:00,74.2,69.7,30.17,SSW,201,11.0,15.0,86,0.00,,,0.00,0,HR-IXPWINDi_r2_v1.2.,2013-07-04 01:28:00,
2013-07-03 21:33:00,74.3,69.8,30.16,SSW,194,14.0,16.0,86,0.00,,,0.00,0,HR-IXPWINDi_r2_v1.2.,2013-07-04 01:33:00,
2013-07-03 21:38:00,74.4,69.9,30.16,SSW,205,12.0,16.0,86,0.00,,,0.00,0,HR-IXPWINDi_r2_v1.2.,2013-07-04 01:38:00,
2013-07-03 21:43:00,74.3,69.8,30.17,SSW,206,17.0,17.0,86,0.00,,,0.00,0,HR-IXPWINDi_r2_v1.2.,2013-07-04 01:43:00,
2013-07-03 21:48:00,74.7,70.2,30.17,SSW,202,12.0,18.0,86,0.00,,,0.00,0,HR-IXPWINDi_r2_v1.2.,2013-07-04 01:48:00,
2013-07-03 21:53:00,74.6,70.1,30.17,South,191,11.0,18.0,86,0.00,,,0.00,0,HR-IXPWINDi_r2_v1.2.,2013-07-04 01:53:00,
2013-07-03 21:59:00,74.2,69.7,30.17,SSW,202,12.0,15.0,86,0.00,,,0.00,0,HR-IXPWINDi_r2_v1.2.,2013-07-04 01:59:00,
2013-07-03 22:04:00,74.2,70.0,30.17,SSW,198,12.0,16.0,87,0.00,,,0.00,0,HR-IXPWINDi_r2_v1.2.,2013-07-04 02:04:00,
2013-07-03 22:09:00,74.3,69.8,30.17,SSW,203,14.0,16.0,86,0.00,,,0.00,0,HR-IXPWINDi_r2_v1.2.,2013-07-04 02:09:00,
2013-07-03 22:14:00,74.2,70.0,30.17,SSW,205,14.0,17.0,87,0.00,,,0.00,0,HR-IXPWINDi_r2_v1.2.,2013-07-04 02:14:00,
2013-07-03 22:20:00,74.0,69.5,30.17,SSW,204,11.0,17.0,86,0.00,,,0.00,0,HR-IXPWINDi_r2_v1.2.,2013-07-04 02:20:00,
2013-07-03 22:25:00,73.2,68.7,30.17,SSW,200,10.0,15.0,86,0.00,,,0.00,0,HR-IXPWINDi_r2_v1.2.,2013-07-04 02:25:00,
2013-07-03 22:30:00,72.7,68.5,30.16,SSW,199,8.0,12.0,87,0.00,,,0.00,0,HR-IXPWINDi_r2_v1.2.,2013-07-04 02:30:00,
2013-07-03 22:35:00,72.1,68.3,30.16,SSW,202,8.0,12.0,88,0.00,,,0.00,0,HR-IXPWINDi_r2_v1.2.,2013-07-04 02:35:00,
2013-07-03 22:40:00,71.9,68.4,30.17,SSW,198,9.0,12.0,89,0.00,,,0.00,0,HR-IXPWINDi_r2_v1.2.,2013-07-04 02:40:00,
2013-07-03 22:45:00,71.9,68.7,30.17,South,187,11.0,13.0,90,0.00,,,0.00,0,HR-IXPWINDi_r2_v1.2.,2013-07-04 02:45:00,
2013-07-03 22:50:00,72.1,68.9,30.16,SSW,194,10.0,13.0,90,0.00,,,0.00,0,HR-IXPWINDi_r2_v1.2.,2013-07-04 02:50:00,
2013-07-03 22:56:00,72.4,68.9,30.17,SSW,198,9.0,11.0,89,0.00,,,0.00,0,HR-IXPWINDi_r2_v1.2.,2013-07-04 02:56:00,
2013-07-03 23:01:00,72.6,69.1,30.17,SSW,204,11.0,17.0,89,0.00,,,0.00,0,HR-IXPWINDi_r2_v1.2.,2013-07-04 03:01:00,
2013-07-03 23:06:00,72.5,69.0,30.17,SSW,202,13.0,17.0,89,0.00,,,0.00,0,HR-IXPWINDi_r2_v1.2.,2013-07-04 03:06:00,
2013-07-03 23:11:00,72.8,69.3,30.17,SSW,207,14.0,16.0,89,0.00,,,0.00,0,HR-IXPWINDi_r2_v1.2.,2013-07-04 03:11:00,
2013-07-03 23:17:00,72.7,68.9,30.17,SSW,209,11.0,16.0,88,0.00,,,0.00,0,HR-IXPWINDi_r2_v1.2.,2013-07-04 03:17:00,
2013-07-03 23:22:00,72.5,68.7,30.17,SSW,207,9.0,15.0,88,0.00,,,0.00,0,HR-IXPWINDi_r2_v1.2.,2013-07-04 03:22:00,
2013-07-03 23:27:00,72.6,69.1,30.17,SSW,201,13.0,17.0,89,0.00,,,0.00,0,HR-IXPWINDi_r2_v1.2.,2013-07-04 03:27:00,
2013-07-03 23:32:00,72.6,69.1,30.17,SSW,202,11.0,17.0,89,0.00,,,0.00,0,HR-IXPWINDi_r2_v1.2.,2013-07-04 03:32:00,
2013-07-03 23:37:00,73.0,69.5,30.17,SSW,209,11.0,17.0,89,0.00,,,0.00,0,HR-IXPWINDi_r2_v1.2.,2013-07-04 03:37:00,
2013-07-03 23:42:00,73.2,69.4,30.17,SSW,199,9.0,16.0,88,0.00,,,0.00,0,HR-IXPWINDi_r2_v1.2.,2013-07-04 03:42:00,
2013-07-03 23:48:00,73.1,69.3,30.17,SSW,206,11.0,13.0,88,0.00,,,0.00,0,HR-IXPWINDi_r2_v1.2.,2013-07-04 03:48:00,
2013-07-03 23:53:00,73.0,69.2,30.18,SSW,207,9.0,14.0,88,0.00,,,0.00,0,HR-IXPWINDi_r2_v1.2.,2013-07-04 03:53:00,
2013-07-03 23:58:00,72.6,69.1,30.17,SSW,202,10.0,14.0,89,0.00,,,0.00,0,HR-IXPWINDi_r2_v1.2.,2013-07-04 03:58:00,